"Pseudo-MPEC" for P116e30

Created 2020 Sep 21 23:07:18 UT using Find_Orb

Click here for an explanation of pseudo-MPECs

 
 Astrometry: 
     P116e30  C2020 09 15#Dv[=FrsAstrometryjDNG(1l0Dmo6JLredacted;f91os1ij43fF51
     P116e30  C2020 09 15J*3clickBI,fm43OyY9DL/4P5DGI=X8aFNp0a83GYZ5F/here5#3F51
     P116e30  C2020 09 15,2G]for!!'JxZexplanation`'BhQ-OD@P#!eIdT)gg6ShM/i.1mF51

Station data:
(F51) Pan-STARRS 1, Haleakala  (N20.707235 W156.255910)  US/Hawaii.
   Observers N. Primak, A. Schultz, S. Watters, J. Thiel, T. Goggia. Measurer
   PS1 Science Consortium. 1.8-m Ritchey-Chrétien + CCD.

Orbital elements:  P116e30
   Perihelion 2020 Aug 20.465925 +/- 53.3 TT = 11:10:55 (JD 2459081.965925)
Epoch 2020 Sep 15.0 TT = JDT 2459107.5   Earth MOID: 0.4996   AutoNEOCP
M   5.97014322 +/- 23               (J2000 ecliptic)
n   0.23381082 +/- 0.248            Peri.  330.03983 +/- 70
a   2.60951402 +/- 1.86             Node     7.77683 +/- 43
e   0.4377756 +/- 0.267             Incl.   28.30677 +/- 12
P   4.22                   H 22.1   G  0.15   U 11.8  SR
q 1.46713238 +/- 0.337    Q 3.75189566 +/- 46.3
From 3 observations 2020 Sept. 15 (73.2 min); mean residual 0".23
Residuals in arcseconds: 
200915 F51  .19+  .24+    200915 F51  .28-  .35-    200915 F51  .09+  .12+    

Ephemerides (geocentric):
Date (UTC) HH   RA              Dec         delta   r     elong  mag " sig PA
---- -- -- --  -------------   -----------  ------ ------ -----  --- ---- ---
2020 09 21 23  00 27 51.347   -10 22 34.59  .50271 1.4983 167.3 22.1  43d  11
2020 09 22 00  00 27 44.941   -10 20 46.76  .50273 1.4984 167.4 22.1  43d  11
2020 09 22 01  00 27 38.536   -10 18 58.92  .50276 1.4985 167.4 22.1  43d  11
2020 09 22 02  00 27 32.131   -10 17 11.05  .50279 1.4985 167.5 22.1  43d  11
2020 09 22 03  00 27 25.727   -10 15 23.16  .50282 1.4986 167.5 22.1  43d  11
2020 09 22 04  00 27 19.323   -10 13 35.25  .50285 1.4987 167.6 22.1  43d  11
2020 09 22 05  00 27 12.921   -10 11 47.32  .50288 1.4988 167.6 22.1  43d  11
2020 09 22 06  00 27 06.519   -10 09 59.37  .50291 1.4989 167.7 22.1  43d  11
2020 09 22 07  00 27 00.118   -10 08 11.39  .50294 1.4989 167.7 22.1  43d  11
2020 09 22 08  00 26 53.717   -10 06 23.40  .50297 1.4990 167.8 22.1  43d  11
2020 09 22 09  00 26 47.318   -10 04 35.39  .50300 1.4991 167.8 22.1  43d  11
2020 09 22 10  00 26 40.919   -10 02 47.36  .50303 1.4992 167.9 22.1  43d  11
2020 09 22 11  00 26 34.521   -10 00 59.31  .50306 1.4993 167.9 22.1  43d  11
2020 09 22 12  00 26 28.124   -09 59 11.24  .50310 1.4993 168.0 22.1  43d  11
2020 09 22 13  00 26 21.728   -09 57 23.15  .50313 1.4994 168.0 22.1  44d  10
2020 09 22 14  00 26 15.333   -09 55 35.04  .50317 1.4995 168.1 22.1  44d  10
2020 09 22 15  00 26 08.939   -09 53 46.92  .50320 1.4996 168.1 22.1  44d  10
2020 09 22 16  00 26 02.546   -09 51 58.78  .50324 1.4997 168.2 22.1  44d  10
2020 09 22 17  00 25 56.154   -09 50 10.62  .50327 1.4997 168.2 22.1  44d  10
2020 09 22 18  00 25 49.763   -09 48 22.44  .50331 1.4998 168.3 22.1  44d  10
2020 09 22 19  00 25 43.372   -09 46 34.25  .50335 1.4999 168.3 22.1  44d  10
2020 09 22 20  00 25 36.983   -09 44 46.04  .50338 1.5000 168.4 22.1  44d  10
2020 09 22 21  00 25 30.595   -09 42 57.81  .50342 1.5001 168.4 22.1  44d  10
2020 09 22 22  00 25 24.208   -09 41 09.57  .50346 1.5001 168.4 22.1  44d  10
2020 09 22 23  00 25 17.823   -09 39 21.31  .50350 1.5002 168.5 22.1  44d  10
2020 09 23 00  00 25 11.438   -09 37 33.03  .50354 1.5003 168.5 22.1  44d  10
2020 09 23 01  00 25 05.054   -09 35 44.74  .50358 1.5004 168.6 22.1  44d  10
2020 09 23 02  00 24 58.672   -09 33 56.44  .50362 1.5005 168.6 22.1  44d  10
2020 09 23 03  00 24 52.291   -09 32 08.12  .50366 1.5005 168.7 22.1  44d  10
2020 09 23 04  00 24 45.911   -09 30 19.79  .50370 1.5006 168.7 22.1  44d  10
2020 09 23 05  00 24 39.532   -09 28 31.44  .50374 1.5007 168.8 22.1  44d  10
2020 09 23 06  00 24 33.155   -09 26 43.08  .50379 1.5008 168.8 22.1  44d  10
2020 09 23 07  00 24 26.779   -09 24 54.70  .50383 1.5009 168.9 22.1  44d  10
2020 09 23 08  00 24 20.404   -09 23 06.31  .50387 1.5009 168.9 22.1  44d  10
2020 09 23 09  00 24 14.030   -09 21 17.91  .50392 1.5010 168.9 22.1  44d  10
2020 09 23 10  00 24 07.658   -09 19 29.50  .50396 1.5011 169.0 22.1  44d  10
2020 09 23 11  00 24 01.287   -09 17 41.07  .50401 1.5012 169.0 22.0  44d  10
2020 09 23 12  00 23 54.918   -09 15 52.63  .50405 1.5013 169.1 22.0  44d  10
2020 09 23 13  00 23 48.550   -09 14 04.18  .50410 1.5014 169.1 22.0  44d  10
2020 09 23 14  00 23 42.183   -09 12 15.72  .50415 1.5014 169.2 22.0  44d  10
2020 09 23 15  00 23 35.818   -09 10 27.25  .50419 1.5015 169.2 22.0  44d  10
2020 09 23 16  00 23 29.454   -09 08 38.76  .50424 1.5016 169.2 22.0  44d  10
2020 09 23 17  00 23 23.092   -09 06 50.27  .50429 1.5017 169.3 22.0  44d  10
2020 09 23 18  00 23 16.731   -09 05 01.76  .50434 1.5018 169.3 22.0  44d  10
2020 09 23 19  00 23 10.372   -09 03 13.25  .50439 1.5019 169.4 22.0  44d  10
2020 09 23 20  00 23 04.014   -09 01 24.72  .50444 1.5019 169.4 22.0  44d  10
2020 09 23 21  00 22 57.658   -08 59 36.18  .50449 1.5020 169.5 22.0  44d  10
2020 09 23 22  00 22 51.303   -08 57 47.64  .50454 1.5021 169.5 22.0  44d  10